Weather Roundup
Issued by NWS Springfield, MO

Home | Current Version | Previous Version | Text Only | Print | Product List | Glossary On
Versions: 1 2 3 4 5 6 7 8 9 10 11 12 13 14 15 16 17 18 19 20 21 22 23 24 25 26 27 28 29 30 31 32 33 34 35 36 37 38 39 40 41 42 43 44 45 46 47 48 49 50
000
NZUS99 KSGF 170307
HRRSGF

HOURLY WEATHER
NATIONAL WEATHER SERVICE SPRINGFIELD MO
1000 PM CDT MON OCT 16 2017

......SGF CWA......

CITY           SKY/WX    TMP DP  RH WIND       PRES   REMARKS
SPRINGFIELD    CLEAR     48  40  73 CALM      30.29F
JOPLIN         CLEAR     49  45  86 CALM      30.30S
WEST PLAINS    CLEAR     44  39  82 CALM      30.33R
ROLLA          CLEAR     49  39  68 S5        30.31R
OSAGE BEACH    CLEAR     47  43  86 CALM      30.31S
BRANSON        CLEAR     54  34  47 CALM      30.32S

......SURROUNDING SGF CWA......

CITY           SKY/WX    TMP DP  RH WIND       PRES   REMARKS
CHANUTE        CLEAR     47  42  83 S5        30.29R
PARSONS        CLEAR     47  42  83 CALM      30.30S
COFFEYVILLE    CLEAR     49  45  86 CALM      30.29S
EMPORIA        CLEAR     48  39  71 S10       30.26R
GROVE OK       CLEAR     46  45  93 CALM      30.32R
ROGERS AR      CLEAR     48  41  76 CALM      30.31F
SILOAM SPRINGS CLEAR     47  42  83 E3        30.31S
HARRISON AR    CLEAR     48  38  68 CALM      30.32S
NEAR YELLVILLE CLEAR     47  42  83 CALM      30.33R

......KANSAS AND MISSOURI......

CITY           SKY/WX    TMP DP  RH WIND       PRES   REMARKS
KANSAS CTY INT PTCLDY    51  43  74 S10       30.24S
DOWNTOWN KC    CLEAR     56  42  59 SW7       30.25R
COLUMBIA       CLEAR     52  41  66 S7        30.29R
SEDALIA        CLEAR     54  44  69 SW5       30.29R
ST JOSEPH      CLEAR     55  44  66 S9        30.22R
ST LOUIS       CLEAR     53  41  63 SW3       30.31R
SPIRIT OF STL  CLEAR     44  43  96 CALM      30.30R
KIRKSVILLE     CLEAR     52  40  63 S6        30.25S
WICHITA        CLEAR     50  42  74 S9        30.25S
TOPEKA         CLEAR     56  42  59 S3        30.24R
OLATHE         CLEAR     52  41  66 S6        30.26S

......TENNESSEE......

CITY           SKY/WX    TMP DP  RH WIND       PRES   REMARKS
MEMPHIS        CLEAR     56  40  55 NE7       30.30R
NASHVILLE      CLEAR     52  42  69 N6        30.31R

......ARKANSAS.......

CITY           SKY/WX    TMP DP  RH WIND       PRES   REMARKS
FAYETTEVILLE   CLEAR     45  44  97 CALM      30.31S
FT SMITH       CLEAR     52  47  83 CALM      30.30S
LITTLE ROCK    CLEAR     53  45  74 CALM      30.31S

......OKLAHOMA.......

CITY           SKY/WX    TMP DP  RH WIND       PRES   REMARKS
TULSA          CLEAR     54  45  71 CALM      30.29R
PONCA CITY     CLEAR     55  42  61 SE5       30.28R
MCALESTER      PTCLDY    48  45  89 CALM      30.29F
OKLAHOMA CITY  PTCLDY    52  42  69 SE5       30.28S

......IOWA............

CITY           SKY/WX    TMP DP  RH WIND       PRES   REMARKS
DES MOINES     PTCLDY    56  41  57 S10       30.15S
QUAD CITIES    CLEAR     53  37  54 S7        30.20S

......ILLINOIS........

CITY           SKY/WX    TMP DP  RH WIND       PRES   REMARKS
QUINCY         CLEAR     52  37  56 S7        30.26S
CHICAGO        CLEAR     51  38  60 S7        30.20F




USA.gov is the U.S. government's official web portal to all federal, state and local government web resources and services.